STARLINK-35371

Last updated on Tue Dec 16 2025 00:02:05 GMT+0000 (Coordinated Universal Time)

1 66484U 25262AE 25349.24545625 .00001736 00000+0 40337-4 0 9998 2 66484 43.0013 56.3462 0001958 225.9041 134.1656 15.46656463 5954
UTC large
Height (km)
Speed (km/s)
/
Latitude / Longitude
Inclination (degrees)
Orbital Period (minutes)
Azimuth
Elevation
Range (km)
Doppler Factor

Next 0 passes for location: London (51.5072 / 0.1276)

Sorry there are no passes over London.